Regional Weather Roundup
Issued by NWS

Home | Current Version | Previous Version | Text Only | Print | Product List | Glossary Off
Versions: 1 2 3 4 5 6 7 8 9 10 11 12 13 14 15 16 17 18 19 20 21 22 23 24 25 26 27 28 29 30 31 32 33 34 35 36 37 38 39 40 41 42 43 44 45 46 47 48 49 50

000
ASUS43 KLMK 180510
RWRKY
KENTUCKY REGIONAL WEATHER ROUNDUP
NATIONAL WEATHER SERVICE LOUISVILLE KY
1200 AM EST SAT NOV 18 2017

NOTE "FAIR" INDICATES FEW OR NO CLOUDS BELOW 12,000 FEET
WITH NO SIGNIFICANT WEATHER AND/OR OBSTRUCTIONS TO VISIBILITY.

KYZ001>023-026-027-061>063-070>075-180600-
WESTERN AND SOUTH CENTRAL KENTUCKY

CITY           SKY/WX    TMP DP  RH WIND       PRES   REMARKS
PADUCAH        CLOUDY    66  52  60 S17G29    29.71F
HENDERSON      CLOUDY    60  45  57 S14G23    29.73F
OWENSBORO      CLOUDY    60  41  49 S20G25    29.74F
HOPKINSVILLE   CLOUDY    62  44  52 S14       29.81F
BOWLING GREEN  CLOUDY    62  35  36 SW16G24   29.87R
GLASGOW        CLOUDY    59  32  35 S10G21    29.87R
$$

KYZ024-025-028>034-038-045-046-053-180600-
NORTH CENTRAL KENTUCKY

CITY           SKY/WX    TMP DP  RH WIND       PRES   REMARKS
LOUISVILLE/SDF CLOUDY    59  36  42 S14       29.79F
LOUISVILLE/LOU LGT RAIN  55  41  59 S9        29.80F
FORT KNOX      CLOUDY    56  36  48 S13       29.80F
$$

KYZ035>037-039>044-047>052-055>060-089>105-180600-
NORTHEAST KENTUCKY

CITY           SKY/WX    TMP DP  RH WIND       PRES   REMARKS
LEXINGTON      PTCLDY    54  36  50 S14       29.83F
COVINGTON      CLOUDY    53  37  54 S20G28    29.77F
FRANKFORT      CLOUDY    54  36  50 S9        29.81F
$$

KYZ054-064>069-076>088-106>120-180600-
SOUTHEAST KENTUCKY

CITY           SKY/WX    TMP DP  RH WIND       PRES   REMARKS
JACKSON        CLOUDY    51  30  44 VRB5      29.92F
LONDON         PTCLDY    54  36  50 S8        29.90F
SOMERSET       PTCLDY    55  36  47 S8G18     29.92F
MIDDLESBORO    CLOUDY    55  37  51 S5        29.99S
MONTICELLO     CLOUDY    59  38  45 S9G18     29.92F
$$




USA.gov is the U.S. government's official web portal to all federal, state and local government web resources and services.